{"data":{"norad_id":55302,"intl_designator":"2023-010AK","name":"STARLINK-5321","alt_names":[],"object_type":"PAYLOAD","status":"ACTIVE","operator":null,"country":"US","launch_date":"2023-01-19","launch_site_code":"AFWTR","launch_vehicle":null,"mission":null,"orbit_class":"UNKNOWN","rcs_meters":null,"size_class":null,"mass_kg":null,"dimensions":null,"purposes":["comms"],"wikipedia_slug":null,"has_3d_model":false,"image_url":null,"decayed_at":null,"tle_current":{"epoch":"2026-05-25T03:28:24.608064Z","epoch_age_seconds":62644,"freshness":"FRESH","line1":"1 55302U 23010AK  26145.14472926  .00000881  00000+0  81643-4 0  9996","line2":"2 55302  69.9988 191.5895 0003438 268.6798  91.3967 14.98330872184720","mean_motion":14.98330872,"eccentricity":0.0003438,"inclination_deg":69.9988,"raan_deg":191.5895,"arg_perigee_deg":268.6798,"mean_anomaly_deg":91.3967,"bstar":8.1643e-5,"rev_number":18472,"period_min":96.106943193252,"perigee_km":569.66371896884,"apogee_km":574.44266974648,"semimajor_km":6950.1901943577,"source":"CELESTRAK","updated_at":"2026-05-25T13:38:17.754506Z"}}}